Hourly Weather Roundup
Issued by NWS Central Illinois

Home | Current Version | Previous Version | Text Only | Print | Product List | Glossary On
Versions: 1 2 3 4 5 6 7 8 9 10 11 12 13 14 15 16 17 18 19 20 21 22 23 24 25 26 27 28 29 30 31 32 33 34 35 36 37 38 39 40 41 42 43 44 45 46 47 48 49 50
000
NZUS43 KILX 230210
HWRILX

Area Weather Roundup
National Weather Service Lincoln IL
900 PM CDT SAT JUL 22 2017

NOTE:  "FAIR" indicates few or no clouds below 12,000 feet, with
       no sigificant weather and/or obstructions to visibility.


CITY           SKY/WX    TMP DP  RH WIND       PRES   REMARKS
Bloomington    CLEAR     79  75  87 NE5       29.83R HX  83
Champaign      CLEAR     81  76  84 NE5       29.81R HX  87
Danville       CLEAR     78  76  95 E3        29.80S HX  80
Decatur        CLEAR     82  78  88 E3        29.80R HX  91
Effingham      MOCLDY    86  75  70 CALM      29.81R HX  95
Flora          CLOUDY    87  75  68 CALM      29.81R HX  96
Galesburg      CLOUDY    80  76  87 N6        29.83S HX  84
Jacksonville   CLEAR     83  78  85 CALM      29.79S HX  94
Lacon          MOCLDY    77  76  97 CALM      29.81R
Lawrenceville  PTCLDY    86  74  67 S8        29.81R HX  94
Litchfield     MOCLDY    87  78  76 CALM      29.78S HX 100
$$


CITY           SKY/WX    TMP DP  RH WIND       PRES   REMARKS
Lincoln        CLEAR     82  81  96 CALM      29.79S HX  94
Macomb         MOCLDY    81  78  93 N3        29.83S HX  89
Mattoon        CLOUDY    84  78  82 E5        29.80S HX  95
Mt Carmel AP   MOCLDY    84  73  67 S6        29.81R HX  90
Olney-Noble AP MOCLDY    85  74  70 S3        29.82R HX  92
Paris AP       TSTM      79  78  95 S5        29.83R HX  84
Peoria         CLOUDY    82  78  88 NE3       29.80R HX  91
Pontiac        PTCLDY    78  78  98 CALM      29.82S HX  81
Rantoul        CLEAR     82  78  90 CALM      29.82R HX  91
Robinson       CLOUDY    83  76  80 CALM      29.81R THUNDER HX  91
Springfield    CLEAR     85  80  85 NE5       29.79R HX  99
Taylorville    CLOUDY    85  78  79 NE6       29.80R HX  96
$$

...REGIONAL REPORTS...


CITY           SKY/WX    TMP DP  RH WIND       PRES   REMARKS
Chicago O`Hare PTCLDY    79  69  71 E7        29.81R HX  81
Kankakee       CLOUDY    79  75  89 CALM      29.82R HX  82
Moline         CLOUDY    82  73  74 CALM      29.81F HX  87
Mount Sterling CLEAR     81  79  94 SE3       29.79S HX  90
Mount Vernon   NOT AVBL
Pittsfield     CLEAR     84  80  88 CALM      29.80S HX  96
Quincy         PTCLDY    87  78  74 CALM      29.79R HX 100
Rockford       PTCLDY    80  72  76 N5        29.83R HX  84
$$


CITY           SKY/WX    TMP DP  RH WIND       PRES   REMARKS
Burlington     CLOUDY    83  78  85 N10       29.81R HX  93
Cedar Rapids   PTCLDY    75  75 100 W5        29.84R
Des Moines     CLOUDY    83  73  72 N5        29.85S HX  89
Kirksville     PTCLDY    84  76  76 N7        29.84R HX  93
Ottumwa        CLOUDY    81  74  79 N5        29.85S HX  86
St Louis       MOCLDY    99  70  38 W8        29.77R HX 106
$$


CITY           SKY/WX    TMP DP  RH WIND       PRES   REMARKS
Terre Haute    CLOUDY    81  76  84 E5        29.81S HX  87
Evansville     CLEAR     89  72  56 SW9       29.83R HX  96
Indianapolis   CLOUDY    83  73  72 N6        29.82S HX  89
Lafayette      MOCLDY    76  75  97 NE7       29.80S
Madison        MOCLDY    74  71  91 CALM      29.82R
Milwaukee      MOCLDY    73  68  84 SE6       29.83R
$$






USA.gov is the U.S. government's official web portal to all federal, state and local government web resources and services.